SWA3964 KORF-KBWI

Flight info

Callsign SWA3964
Flight time 0h 43m
Altitude 27000
Route NUTIY1 THHMP RAVNN8
Aircraft B738/M-SDE2E3FGHIRWXY/LB1

Departure

Time 2026-05-07 21:47
Airport Norfolk International Airport (KORF)

Arrival

Time 2026-05-07 22:31
Airport Baltimore/Washington International Thurgood Marshall Airport (KBWI)
Time Latitude Longitude Altitude Speed Heading
2026-05-07 21:19 36.89963 -76.20217 2 ft 0 kts 187°
2026-05-07 21:40 36.89977 -76.20215 2 ft 3 kts 184°
2026-05-07 21:40 36.89997 -76.20214 2 ft 3 kts 172°
2026-05-07 21:40 36.90016 -76.20220 2 ft 3 kts 143°
2026-05-07 21:40 36.90025 -76.20233 2 ft 1 kts 104°
2026-05-07 21:41 36.90026 -76.20236 2 ft 1 kts 102°
2026-05-07 21:43 36.90022 -76.20211 4 ft 9 kts 99°
2026-05-07 21:43 36.90006 -76.20077 2 ft 21 kts 98°
2026-05-07 21:44 36.89941 -76.19910 3 ft 22 kts 140°
2026-05-07 21:44 36.89797 -76.19888 2 ft 22 kts 201°
2026-05-07 21:44 36.89654 -76.20016 3 ft 28 kts 218°
2026-05-07 21:44 36.89481 -76.20180 4 ft 34 kts 217°
2026-05-07 21:45 36.89281 -76.20371 3 ft 38 kts 217°
2026-05-07 21:45 36.89057 -76.20560 3 ft 39 kts 213°
2026-05-07 21:45 36.88851 -76.20746 2 ft 29 kts 218°
2026-05-07 21:45 36.88709 -76.20883 2 ft 9 kts 208°
2026-05-07 21:46 36.88637 -76.20880 1 ft 15 kts 143°
2026-05-07 21:46 36.88656 -76.20766 2 ft 16 kts 38°
2026-05-07 21:46 36.88894 -76.20539 4 ft 84 kts 37°
2026-05-07 21:46 36.89586 -76.19862 56 ft 162 kts 38°
2026-05-07 21:47 36.90626 -76.18892 504 ft 208 kts 38°
2026-05-07 21:47 36.91881 -76.17729 1152 ft 234 kts 32°
2026-05-07 21:47 36.93342 -76.17062 2433 ft 216 kts
2026-05-07 21:47 36.94773 -76.17552 3235 ft 223 kts 325°
2026-05-07 21:48 36.95864 -76.19017 3781 ft 239 kts 309°
2026-05-07 21:48 36.96761 -76.20869 4303 ft 262 kts 293°
2026-05-07 21:48 36.97148 -76.23140 5156 ft 267 kts 272°
2026-05-07 21:48 36.96788 -76.25371 6421 ft 261 kts 247°
2026-05-07 21:49 36.96177 -76.27447 7545 ft 252 kts 261°
2026-05-07 21:49 36.95919 -76.29607 8550 ft 251 kts 260°
2026-05-07 21:49 36.95578 -76.31739 9542 ft 250 kts 257°
2026-05-07 21:49 36.95197 -76.33859 10421 ft 252 kts 257°
2026-05-07 21:50 36.94798 -76.35999 11138 ft 258 kts 257°
2026-05-07 21:50 36.94565 -76.38251 12027 ft 259 kts 266°
2026-05-07 21:50 36.94556 -76.40464 12976 ft 257 kts 267°
2026-05-07 21:50 36.94575 -76.42724 13920 ft 256 kts 267°
2026-05-07 21:51 36.94583 -76.44957 14665 ft 259 kts 266°
2026-05-07 21:51 36.94579 -76.47222 15378 ft 262 kts 266°
2026-05-07 21:51 36.94570 -76.49483 16101 ft 265 kts 266°
2026-05-07 21:51 36.94562 -76.51794 16878 ft 268 kts 269°
2026-05-07 21:52 36.94905 -76.54111 17628 ft 276 kts 281°
2026-05-07 21:52 36.95630 -76.56361 18381 ft 284 kts 289°
2026-05-07 21:52 36.96757 -76.58441 19075 ft 293 kts 298°
2026-05-07 21:52 36.98056 -76.60407 19814 ft 293 kts 299°
2026-05-07 21:53 36.99379 -76.62356 20514 ft 294 kts 298°
2026-05-07 21:53 37.00706 -76.64307 21202 ft 295 kts 298°
2026-05-07 21:53 37.02032 -76.66264 21892 ft 295 kts 297°
2026-05-07 21:53 37.03356 -76.68227 22580 ft 295 kts 297°
2026-05-07 21:54 37.04679 -76.70198 23248 ft 296 kts 296°
2026-05-07 21:54 37.06002 -76.72176 23835 ft 297 kts 296°
2026-05-07 21:54 37.07329 -76.74162 24382 ft 297 kts 296°
2026-05-07 21:54 37.08654 -76.76149 24913 ft 298 kts 296°
2026-05-07 21:55 37.09984 -76.78146 25439 ft 299 kts 296°
2026-05-07 21:55 37.11315 -76.80148 25956 ft 300 kts 296°
2026-05-07 21:55 37.12653 -76.82161 26464 ft 301 kts 296°
2026-05-07 21:55 37.13992 -76.84177 26878 ft 302 kts 296°
2026-05-07 21:56 37.15348 -76.86226 26901 ft 310 kts 296°
2026-05-07 21:56 37.16746 -76.88350 26944 ft 322 kts 296°
2026-05-07 21:56 37.18199 -76.90554 26945 ft 333 kts 297°
2026-05-07 21:56 37.19700 -76.92825 26941 ft 343 kts 297°
2026-05-07 21:57 37.21245 -76.95159 26937 ft 352 kts 297°
2026-05-07 21:57 37.22830 -76.97551 26940 ft 361 kts 297°
2026-05-07 21:57 37.24455 -77.00003 26968 ft 369 kts 298°
2026-05-07 21:57 37.26112 -77.02506 26930 ft 377 kts 298°
2026-05-07 21:58 37.27801 -77.05057 26942 ft 383 kts 298°
2026-05-07 21:58 37.29516 -77.07652 26935 ft 388 kts 298°
2026-05-07 21:58 37.31242 -77.10264 26926 ft 388 kts 298°
2026-05-07 21:58 37.32969 -77.12859 26926 ft 388 kts 300°
2026-05-07 21:59 37.34870 -77.15319 26939 ft 396 kts 304°
2026-05-07 21:59 37.36906 -77.17660 26930 ft 397 kts 305°
2026-05-07 21:59 37.38948 -77.19990 26929 ft 396 kts 305°
2026-05-07 21:59 37.40975 -77.22327 26862 ft 395 kts 305°
2026-05-07 22:00 37.42972 -77.24647 26763 ft 381 kts 305°
2026-05-07 22:00 37.44888 -77.26873 26565 ft 367 kts 304°
2026-05-07 22:00 37.46869 -77.28878 26398 ft 373 kts 315°
2026-05-07 22:00 37.49299 -77.30161 26262 ft 385 kts 327°
2026-05-07 22:01 37.51966 -77.30852 25925 ft 401 kts 340°
2026-05-07 22:01 37.54835 -77.30713 25490 ft 424 kts 355°
2026-05-07 22:01 37.57747 -77.30044 25075 ft 426 kts 358°
2026-05-07 22:01 37.60629 -77.29271 24961 ft 421 kts 358°
2026-05-07 22:02 37.63469 -77.28510 24924 ft 411 kts 358°
2026-05-07 22:02 37.66223 -77.27805 24920 ft 397 kts 356°
2026-05-07 22:02 37.68888 -77.27151 24914 ft 382 kts 356°
2026-05-07 22:02 37.71447 -77.26535 24912 ft 368 kts 355°
2026-05-07 22:03 37.73924 -77.25916 24913 ft 357 kts 355°
2026-05-07 22:03 37.76310 -77.25290 24914 ft 344 kts 355°
2026-05-07 22:03 37.78609 -77.24683 24913 ft 331 kts 354°
2026-05-07 22:03 37.80822 -77.24104 24911 ft 318 kts 353°
2026-05-07 22:04 37.82955 -77.23553 24915 ft 308 kts 352°
2026-05-07 22:04 37.85054 -77.23021 24925 ft 309 kts 352°
2026-05-07 22:04 37.87243 -77.22486 24410 ft 340 kts 353°
2026-05-07 22:04 37.89676 -77.21899 23634 ft 370 kts 356°
2026-05-07 22:05 37.92298 -77.21223 23248 ft 398 kts 358°
2026-05-07 22:05 37.95096 -77.20493 22911 ft 416 kts 359°
2026-05-07 22:05 37.97908 -77.19728 22649 ft 411 kts
2026-05-07 22:05 38.00697 -77.18974 22220 ft 408 kts
2026-05-07 22:06 38.03475 -77.18241 21685 ft 407 kts
2026-05-07 22:06 38.06243 -77.17520 21174 ft 405 kts
2026-05-07 22:06 38.09009 -77.16802 20479 ft 409 kts
2026-05-07 22:06 38.11795 -77.16077 19942 ft 408 kts
2026-05-07 22:07 38.14574 -77.15350 19436 ft 407 kts
2026-05-07 22:07 38.17343 -77.14623 18935 ft 405 kts
2026-05-07 22:07 38.20099 -77.13899 18442 ft 404 kts
2026-05-07 22:07 38.22852 -77.13178 17895 ft 403 kts
2026-05-07 22:08 38.25588 -77.12459 17395 ft 400 kts
2026-05-07 22:08 38.27382 -77.11987 17089 ft 397 kts
2026-05-07 22:08 38.30052 -77.11282 16956 ft 385 kts
2026-05-07 22:08 38.32627 -77.10600 16987 ft 372 kts
2026-05-07 22:09 38.35119 -77.09940 17014 ft 360 kts
2026-05-07 22:09 38.37483 -77.08886 17016 ft 365 kts 24°
2026-05-07 22:09 38.39550 -77.07079 17045 ft 355 kts 28°
2026-05-07 22:09 38.41524 -77.05265 17043 ft 344 kts 28°
2026-05-07 22:10 38.43434 -77.03516 17024 ft 332 kts 27°
2026-05-07 22:10 38.45282 -77.01842 17024 ft 320 kts 26°
2026-05-07 22:10 38.47068 -77.00238 17010 ft 309 kts 26°
2026-05-07 22:10 38.48816 -76.98679 17033 ft 305 kts 26°
2026-05-07 22:11 38.50613 -76.97093 16660 ft 331 kts 26°
2026-05-07 22:11 38.52620 -76.95330 16277 ft 368 kts 27°
2026-05-07 22:11 38.54756 -76.93422 15833 ft 377 kts 30°
2026-05-07 22:11 38.56784 -76.91263 15376 ft 381 kts 37°
2026-05-07 22:12 38.58699 -76.88938 14931 ft 378 kts 39°
2026-05-07 22:12 38.60578 -76.86605 14477 ft 376 kts 39°
2026-05-07 22:12 38.62465 -76.84282 13980 ft 377 kts 39°
2026-05-07 22:12 38.64367 -76.81971 13435 ft 377 kts 39°
2026-05-07 22:13 38.66267 -76.79682 12853 ft 373 kts 38°
2026-05-07 22:13 38.68150 -76.77421 12261 ft 369 kts 38°
2026-05-07 22:13 38.70007 -76.75183 11723 ft 365 kts 40°
2026-05-07 22:13 38.71555 -76.72620 11202 ft 365 kts 58°
2026-05-07 22:14 38.72733 -76.69766 10731 ft 359 kts 60°
2026-05-07 22:14 38.73891 -76.66957 10249 ft 354 kts 59°
2026-05-07 22:14 38.75062 -76.64207 9769 ft 350 kts 59°
2026-05-07 22:14 38.76232 -76.61504 9250 ft 345 kts 58°
2026-05-07 22:15 38.77580 -76.59032 8686 ft 333 kts 38°
2026-05-07 22:15 38.79460 -76.57440 8204 ft 317 kts 18°
2026-05-07 22:15 38.81526 -76.56671 7726 ft 304 kts
2026-05-07 22:15 38.83584 -76.56139 7231 ft 300 kts
2026-05-07 22:16 38.85614 -76.56037 6714 ft 288 kts 347°
2026-05-07 22:16 38.87537 -76.56585 6236 ft 281 kts 345°
2026-05-07 22:16 38.89434 -76.57121 5753 ft 279 kts 346°
2026-05-07 22:16 38.91317 -76.57633 5510 ft 274 kts 347°
2026-05-07 22:17 38.93157 -76.58126 5334 ft 267 kts 347°
2026-05-07 22:17 38.94949 -76.58604 5226 ft 258 kts 347°
2026-05-07 22:17 38.96586 -76.59384 5074 ft 249 kts 323°
2026-05-07 22:17 38.97783 -76.60907 5029 ft 238 kts 307°
2026-05-07 22:18 38.98631 -76.62672 5045 ft 224 kts 301°
2026-05-07 22:18 39.00038 -76.65926 4997 ft 193 kts 301°
2026-05-07 22:18 39.00689 -76.67407 5018 ft 189 kts 301°
2026-05-07 22:19 39.01347 -76.68893 4804 ft 198 kts 301°
2026-05-07 22:19 39.02042 -76.70455 4347 ft 201 kts 301°
2026-05-07 22:19 39.02731 -76.72001 4087 ft 194 kts 301°
2026-05-07 22:19 39.03396 -76.73493 4047 ft 192 kts 301°
2026-05-07 22:20 39.04065 -76.74975 4037 ft 191 kts 301°
2026-05-07 22:20 39.04734 -76.76456 4033 ft 192 kts 301°
2026-05-07 22:20 39.05398 -76.77926 4030 ft 195 kts 300°
2026-05-07 22:20 39.06093 -76.79465 4016 ft 197 kts 300°
2026-05-07 22:21 39.06778 -76.80983 4021 ft 196 kts 300°
2026-05-07 22:21 39.07457 -76.82503 4022 ft 196 kts 297°
2026-05-07 22:21 39.07939 -76.84139 4033 ft 195 kts 288°
2026-05-07 22:21 39.08364 -76.85803 4033 ft 196 kts 289°
2026-05-07 22:22 39.08802 -76.87471 4029 ft 197 kts 289°
2026-05-07 22:22 39.09239 -76.89133 4023 ft 195 kts 290°
2026-05-07 22:22 39.09680 -76.90784 4032 ft 195 kts 290°
2026-05-07 22:22 39.10121 -76.92428 4015 ft 194 kts 294°
2026-05-07 22:23 39.10935 -76.93755 4032 ft 189 kts 321°
2026-05-07 22:23 39.11937 -76.94848 4018 ft 188 kts 318°
2026-05-07 22:23 39.12918 -76.95964 4021 ft 188 kts 318°
2026-05-07 22:23 39.13892 -76.97070 3998 ft 185 kts 318°
2026-05-07 22:24 39.14848 -76.98157 3995 ft 183 kts 318°
2026-05-07 22:24 39.15793 -76.99231 3999 ft 180 kts 318°
2026-05-07 22:24 39.16856 -77.00019 3983 ft 179 kts 351°
2026-05-07 22:24 39.18081 -76.99722 4009 ft 188 kts 30°
2026-05-07 22:25 39.18918 -76.98506 3958 ft 184 kts 68°
2026-05-07 22:25 39.19034 -76.96951 4011 ft 173 kts 91°
2026-05-07 22:25 39.18956 -76.95381 4004 ft 177 kts 91°
2026-05-07 22:25 39.18869 -76.93727 3837 ft 188 kts 92°
2026-05-07 22:26 39.18779 -76.92119 3679 ft 172 kts 91°
2026-05-07 22:26 39.18696 -76.90673 3442 ft 153 kts 91°
2026-05-07 22:26 39.18622 -76.89361 3224 ft 140 kts 91°
2026-05-07 22:26 39.18551 -76.88068 3099 ft 158 kts 93°
2026-05-07 22:27 39.18467 -76.86593 2865 ft 171 kts 92°
2026-05-07 22:27 39.18385 -76.85112 2613 ft 160 kts 93°
2026-05-07 22:27 39.18308 -76.83731 2412 ft 151 kts 92°
2026-05-07 22:27 39.18233 -76.82395 2223 ft 148 kts 93°
2026-05-07 22:28 39.18158 -76.81058 2045 ft 154 kts 93°
2026-05-07 22:28 39.18080 -76.79648 1823 ft 161 kts 92°
2026-05-07 22:28 39.18000 -76.78226 1611 ft 156 kts 93°
2026-05-07 22:28 39.17934 -76.76826 1462 ft 158 kts 92°
2026-05-07 22:29 39.17871 -76.75425 1272 ft 152 kts 91°
2026-05-07 22:29 39.17800 -76.74088 1105 ft 149 kts 93°
2026-05-07 22:29 39.17718 -76.72734 926 ft 153 kts 95°
2026-05-07 22:29 39.17638 -76.71377 699 ft 149 kts 97°
2026-05-07 22:30 39.17559 -76.70083 459 ft 138 kts 98°
2026-05-07 22:30 39.17488 -76.68889 222 ft 129 kts 98°
2026-05-07 22:30 39.17414 -76.67825 153 ft 105 kts 92°
2026-05-07 22:30 39.17374 -76.67159 161 ft 53 kts 94°
2026-05-07 22:31 39.17346 -76.66745 158 ft 25 kts 95°
2026-05-07 22:31 39.17385 -76.66602 155 ft 13 kts 18°
2026-05-07 22:31 39.17464 -76.66526 154 ft 16 kts 75°
2026-05-07 22:31 39.17550 -76.66450 152 ft 14 kts 339°
2026-05-07 22:32 39.17658 -76.66451 155 ft 21 kts 32°
2026-05-07 22:32 39.17761 -76.66488 156 ft 16 kts 313°
2026-05-07 22:32 39.17808 -76.66564 157 ft 8 kts 293°
2026-05-07 22:32 39.17798 -76.66633 158 ft 9 kts 228°
2026-05-07 22:33 39.17795 -76.66638 158 ft 0 kts 227°